Location: Killam
(52.7910°N, 111.8608°W)
Time: 12:42:06
(UTC+00:00)

CUBEBUG 2 - Pass Details

Date: 12 March 2026
Orbit: 548 x 627 km, 97.9° (Epoch: 14 April)

Event Time Altitude Azimuth Distance (km) Brightness Sun altitude
Rises 11:11:11 0° 5° (N) 2,873 ? -23.8°
Reaches altitude 10° 11:13:40 10° 352° (N) 1,977 ? -23.5°
Enters shadow 11:15:48 21° 326° (NW) 1,405 ? -23.2°
